Volver al catálogo

SL-14 R/B

ActivoPO
NORAD 20741·ROCKET BODY·🇷🇺 Russia

Lanzado Aug 8, 1990 desde Plesetsk Cosmodrome

Loading…

Próximos Pases (próximas 24 horas)

TLE

ActualizadoSource: Space-Track

Época: Sep 14, 2026, 14:30 UTC

1 20741U 90070G   26257.60463132  .00000012  00000-0  11871-4 0  9992
2 20741  82.5815  13.8589 0035282 215.8325 155.4224 12.55718710654752

Sigue SL-14 R/B en tiempo real con AllMySat

Download on the App Store